Location: Asheville, NC
(35.6000°N, 82.5500°W)
Time: 17:07:34
(UTC-04:00)

HO-68 - Pass Details

Date: 17 March 2018
Orbit: 1192 x 1205 km, 100.1° (Epoch: 17 June)

Event Time Altitude Azimuth Distance (km) Brightness Sun altitude
Rises 06:50:46 0° 36° (NE) 4,116 ? -10.4°
Reaches altitude 10° 06:54:54 10° 59° (ENE) 3,147 ? -9.6°
Maximum altitude 06:58:43 15° 91° (E) 2,780 ? -8.8°
Drops below altitude 10° 07:02:30 10° 124° (SE) 3,137 ? -8.1°
Sets 07:06:34 0° 146° (SE) 4,096 ? -7.2°
